Powrót do katalogu

CZ-6A DEB

AktywnySSO
NORAD 66789·DEBRIS·🇨🇳 China

Wystrzelony Nov 11, 2022 z Taiyuan Satellite Launch Center

Loading…

Następne Przeloty (najbliższe 24 godziny)

TLE

ŚwieżeSource: Space-Track

Epoka: Sep 14, 2026, 11:01 UTC

1 66789U 22151AJF 26257.45947241  .00002414  00000-0  11292-2 0  9993
2 66789  98.8323 264.2245 0053136  68.5500 292.1332 14.20477055178001

Śledź CZ-6A DEB w czasie rzeczywistym z AllMySat

Download on the App Store